Last 24 Hours

Thomas Mountain

10 Minute Data | America/Los_Angeles
as of 5/8/26 8:33 PM PDT
Date & Time Temp (°F) Dew Pt (°F) RH (%) Wind Spd (mph) Wind Dir (°) Wind Gust (mph) Wind Gst Dir (°) Daily Max Temp (°F) Daily Min Temp (°F)
5/8/26 - 2030 62.0 48.2 61 5.9 N | 356 7.7 N | 354 75.3 58.9
5/8/26 - 2020 63.0 49.0 60 3.4 NNE | 13 6.4 N | 350 75.3 58.9
5/8/26 - 2010 63.3 49.6 61 1.6 N | 7 3.5 N | 10 75.3 58.9
5/8/26 - 2000 63.3 49.2 60 3.2 N | 350 5.3 WSW | 256 75.3 58.9
5/8/26 - 1950 64.1 49.4 59 5.8 W | 267 8.6 W | 261 75.3 58.9
5/8/26 - 1940 64.7 49.4 58 5.9 W | 268 8.8 SW | 227 75.3 58.9
5/8/26 - 1930 65.5 49.6 56 8.8 W | 267 13.4 WSW | 257 75.3 58.9
5/8/26 - 1920 66.3 48.7 53 7.7 W | 263 14.0 W | 268 75.3 58.9
5/8/26 - 1910 67.0 46.6 48 9.5 WSW | 253 14.7 WSW | 251 75.3 58.9
5/8/26 - 1900 67.7 44.2 43 10.1 WSW | 248 14.4 SW | 221 75.3 58.9
5/8/26 - 1850 68.0 44.1 42 11.5 WSW | 245 16.2 WSW | 244 75.3 58.9
5/8/26 - 1840 68.8 43.5 40 11.6 WSW | 243 15.9 WSW | 238 75.3 58.9
5/8/26 - 1830 69.5 43.5 39 10.9 WSW | 243 16.2 WSW | 243 75.3 58.9
5/8/26 - 1820 70.0 43.1 38 11.6 WSW | 246 16.8 WSW | 238 75.3 58.9
5/8/26 - 1810 70.4 42.4 36 11.0 WSW | 246 17.1 W | 259 75.3 58.9
5/8/26 - 1800 70.6 42.1 36 13.2 WSW | 246 18.0 WSW | 241 75.3 58.9
5/8/26 - 1750 71.2 42.2 35 12.8 WSW | 245 17.3 WSW | 248 75.3 58.9
5/8/26 - 1740 72.0 42.5 35 11.5 WSW | 246 19.7 WSW | 248 75.3 58.9
5/8/26 - 1730 72.2 42.4 34 12.2 WSW | 248 21.8 SW | 233 75.3 58.9
5/8/26 - 1720 72.2 42.5 34 13.4 WSW | 246 19.1 SW | 227 75.3 58.9
5/8/26 - 1710 72.4 41.7 33 12.4 WSW | 251 21.8 WSW | 250 75.3 58.9
5/8/26 - 1700 73.0 40.2 31 11.0 W | 262 20.2 WSW | 252 75.3 58.9
5/8/26 - 1650 73.2 40.9 31 13.3 WSW | 249 22.1 WSW | 242 75.3 58.9
5/8/26 - 1640 73.5 41.4 31 13.0 WSW | 247 21.3 SW | 230 75.3 58.9
5/8/26 - 1630 73.0 41.6 32 13.6 WSW | 246 23.8 WSW | 247 75.3 58.9
5/8/26 - 1620 73.3 41.9 32 13.6 W | 261 24.2 WSW | 251 75.3 58.9
5/8/26 - 1610 72.9 42.7 34 11.9 W | 271 21.8 WSW | 250 75.3 58.9
5/8/26 - 1600 73.6 41.4 31 12.8 W | 262 22.6 WSW | 239 75.3 58.9
5/8/26 - 1550 73.7 39.9 30 15.6 WSW | 253 24.0 WSW | 244 75.3 58.9
5/8/26 - 1540 74.0 41.0 30 11.6 WSW | 255 20.5 W | 274 75.3 58.9
5/8/26 - 1530 74.2 40.4 30 12.9 W | 260 21.8 WSW | 252 75.3 58.9
5/8/26 - 1520 74.0 40.2 30 13.3 WSW | 252 22.1 W | 260 75.3 58.9
5/8/26 - 1510 74.3 38.9 28 12.2 WSW | 249 21.8 W | 271 75.3 58.9
5/8/26 - 1500 74.0 37.4 26 12.9 WSW | 252 20.8 W | 265 75.3 58.9
5/8/26 - 1450 74.0 37.2 26 12.7 WSW | 255 21.6 WSW | 247 75.3 58.9
5/8/26 - 1440 74.4 36.9 26 12.0 WSW | 251 23.5 WSW | 239 75.3 58.9
5/8/26 - 1430 74.1 36.9 26 12.5 WSW | 243 19.9 WSW | 237 75.0 58.9
5/8/26 - 1420 73.8 35.7 25 11.9 WSW | 246 22.9 WSW | 246 75.0 58.9
5/8/26 - 1410 73.9 34.3 23 12.3 WSW | 247 21.9 WSW | 239 75.0 58.9
5/8/26 - 1400 73.6 34.8 24 12.2 WSW | 243 22.9 WSW | 243 75.0 58.9
5/8/26 - 1350 73.5 34.1 24 13.3 WSW | 252 20.8 WSW | 247 75.0 58.9
5/8/26 - 1340 73.8 36.1 25 10.7 WSW | 240 22.3 SW | 235 75.0 58.9
5/8/26 - 1330 73.5 37.5 27 11.4 WSW | 246 20.2 W | 261 74.3 58.9
5/8/26 - 1320 72.9 38.4 29 13.6 WSW | 251 27.5 WSW | 253 74.2 58.9
5/8/26 - 1310 72.9 38.9 29 9.2 WSW | 256 21.6 WSW | 254 74.2 58.9
5/8/26 - 1300 72.9 39.0 29 11.6 WSW | 244 20.3 SW | 228 74.2 58.9
5/8/26 - 1250 72.9 37.0 27 12.0 WSW | 252 18.8 WSW | 238 74.2 58.9
5/8/26 - 1240 72.9 36.6 27 12.8 WSW | 246 20.0 WSW | 249 73.8 58.9
5/8/26 - 1230 72.6 35.3 26 11.8 WSW | 247 21.4 W | 260 73.7 58.9
5/8/26 - 1220 72.8 34.0 24 11.8 WSW | 250 21.9 W | 261 73.7 58.9
5/8/26 - 1210 72.7 34.2 24 11.6 WSW | 251 21.3 W | 261 73.7 58.9
5/8/26 - 1200 72.6 31.8 22 10.8 WSW | 250 21.6 WSW | 246 73.7 58.9
5/8/26 - 1150 72.5 29.7 20 9.9 W | 270 18.3 WSW | 246 73.3 58.9
5/8/26 - 1140 72.6 29.3 20 10.4 WSW | 252 18.5 W | 278 73.3 58.9
5/8/26 - 1130 72.5 27.7 19 10.3 W | 265 19.1 W | 265 73.3 58.9
5/8/26 - 1120 72.7 27.6 19 11.1 WSW | 254 19.0 W | 262 73.2 58.9
5/8/26 - 1110 72.3 26.5 18 11.2 WSW | 250 20.2 W | 267 73.2 58.9
5/8/26 - 1100 72.7 28.1 19 9.6 W | 264 21.3 WSW | 239 73.2 58.9
5/8/26 - 1050 72.3 28.7 20 9.3 WSW | 257 16.9 WSW | 256 73.2 58.9
5/8/26 - 1040 72.1 29.5 21 10.0 W | 263 20.8 WSW | 247 72.8 58.9
5/8/26 - 1030 72.2 29.8 21 10.3 WSW | 251 17.0 WSW | 244 72.8 58.9
5/8/26 - 1020 71.7 29.1 20 9.9 WSW | 251 17.0 WSW | 255 72.4 58.9
5/8/26 - 1010 71.8 29.9 21 10.8 WSW | 250 17.8 WSW | 247 72.4 58.9
5/8/26 - 1000 71.7 29.4 21 9.0 WSW | 252 18.0 WSW | 250 72.3 58.9
5/8/26 - 0950 71.6 28.8 20 8.9 WSW | 254 15.4 WSW | 255 72.2 58.9
5/8/26 - 0940 71.3 28.8 21 8.2 WSW | 256 15.8 W | 267 71.7 58.9
5/8/26 - 0930 71.0 28.5 20 10.3 WSW | 258 18.5 W | 263 71.7 58.9
5/8/26 - 0920 71.1 28.1 20 6.9 WNW | 293 17.0 WNW | 302 71.7 58.9
5/8/26 - 0910 71.1 28.0 20 7.0 W | 276 14.5 WNW | 290 71.7 58.9
5/8/26 - 0900 71.2 29.2 21 4.7 WSW | 254 13.1 SW | 231 71.7 58.9
5/8/26 - 0850 70.0 32.9 25 1.8 WSW | 240 5.2 W | 264 70.7 58.9
5/8/26 - 0840 69.8 34.0 27 3.1 N | 354 9.0 NNE | 30 70.7 58.9
5/8/26 - 0830 68.9 33.5 27 5.0 NNE | 17 9.7 NNE | 13 69.3 58.9
5/8/26 - 0820 68.2 33.0 27 6.9 NNE | 25 12.9 NE | 38 68.4 58.9
5/8/26 - 0810 67.3 32.6 28 7.7 NNE | 23 12.1 NNE | 31 67.8 58.9
5/8/26 - 0800 66.9 32.7 28 7.1 NNE | 29 10.1 NNE | 26 67.3 58.9
5/8/26 - 0750 66.2 32.4 28 7.6 NNE | 21 11.9 NNE | 17 66.7 58.9
5/8/26 - 0740 65.0 32.7 30 8.0 NNE | 27 11.3 NNE | 12 66.4 58.9
5/8/26 - 0730 65.0 32.7 30 7.2 NE | 34 10.0 NNE | 15 66.4 58.9
5/8/26 - 0720 64.1 33.0 31 5.6 NNE | 29 7.8 NNE | 32 66.4 58.9
5/8/26 - 0710 64.4 32.7 31 4.5 NNE | 32 6.6 NE | 44 66.4 58.9
5/8/26 - 0700 63.0 32.1 31 4.8 N | 2 6.8 N | 1 66.4 58.9
5/8/26 - 0650 61.8 32.4 33 5.2 N | 0 7.0 N | 7 66.4 58.9
5/8/26 - 0640 61.3 32.4 34 6.2 N | 7 9.1 NNE | 12 66.4 58.9
5/8/26 - 0630 61.5 32.4 33 6.4 N | 8 7.7 N | 9 66.4 58.9
5/8/26 - 0620 62.0 31.4 31 6.7 N | 2 8.0 N | 8 66.4 58.9
5/8/26 - 0610 61.7 31.4 32 7.8 N | 3 9.4 N | 0 66.4 58.9
5/8/26 - 0600 61.7 31.0 31 6.3 N | 357 8.3 N | 9 66.4 58.9
5/8/26 - 0550 62.6 30.9 30 5.8 N | 358 7.3 N | 1 66.4 58.9
5/8/26 - 0540 65.3 26.3 23 5.6 NNW | 332 9.6 NW | 304 66.4 58.9
5/8/26 - 0530 64.7 26.5 23 6.6 NNW | 330 10.2 NNW | 328 66.4 58.9
5/8/26 - 0520 64.1 29.5 27 6.5 N | 0 9.6 NNW | 338 66.4 58.9
5/8/26 - 0510 65.6 26.2 22 6.4 NNW | 346 9.6 NNW | 327 66.4 58.9
5/8/26 - 0500 65.9 27.9 24 5.9 NNW | 338 10.4 N | 354 66.4 58.9
5/8/26 - 0450 62.4 31.5 31 4.4 N | 351 7.1 N | 354 65.9 58.9
5/8/26 - 0440 61.3 33.9 36 7.6 N | 8 10.0 NNE | 19 65.9 58.9
5/8/26 - 0430 65.0 30.2 27 5.5 N | 350 9.4 NNE | 19 65.9 58.9
5/8/26 - 0420 61.2 33.9 36 5.2 N | 1 7.1 N | 7 63.4 58.9
5/8/26 - 0410 62.3 34.0 35 7.1 N | 6 8.6 N | 11 63.4 58.9
5/8/26 - 0400 62.9 33.6 33 6.7 N | 5 8.4 N | 11 63.4 58.9
5/8/26 - 0350 62.9 32.8 32 5.9 N | 0 7.7 N | 4 63.4 58.9
5/8/26 - 0340 62.1 34.6 36 6.8 N | 356 8.3 N | 5 62.8 58.9
5/8/26 - 0330 60.0 36.7 42 7.0 N | 5 9.3 N | 0 60.9 58.9
5/8/26 - 0320 59.9 37.2 43 7.2 N | 9 9.0 NNE | 14 60.9 58.9
5/8/26 - 0310 59.8 37.4 43 6.7 N | 5 8.8 NNE | 14 60.9 58.9
5/8/26 - 0300 59.7 38.0 44 6.7 N | 5 8.6 N | 11 60.9 58.9
5/8/26 - 0250 59.8 38.0 44 7.1 N | 10 9.2 N | 7 60.9 58.9
5/8/26 - 0240 59.5 37.8 44 6.9 N | 10 8.6 NNE | 16 60.9 58.9
5/8/26 - 0230 59.5 37.6 44 7.2 N | 7 8.8 N | 353 60.9 58.9
5/8/26 - 0220 59.7 37.6 44 7.5 N | 3 10.2 N | 8 60.9 58.9
5/8/26 - 0210 60.1 37.3 42 8.1 N | 6 10.6 N | 9 60.9 58.9
5/8/26 - 0200 60.1 37.0 42 9.1 N | 3 11.6 N | 8 60.9 58.9
5/8/26 - 0150 59.1 36.8 43 9.2 N | 4 12.1 N | 6 60.7 58.9
5/8/26 - 0140 59.4 36.4 42 8.9 NNE | 13 11.0 N | 8 60.7 59.0
5/8/26 - 0130 60.0 36.4 41 8.4 NNE | 18 11.8 N | 4 60.7 59.0
5/8/26 - 0120 59.6 36.1 41 7.4 N | 11 11.2 NNE | 18 60.7 59.0
5/8/26 - 0110 59.5 35.9 41 6.5 N | 8 8.9 N | 11 60.1 59.0
5/8/26 - 0100 59.7 36.0 41 6.0 N | 5 8.5 N | 5 75.8 54.8
5/8/26 - 0050 60.2 36.1 41 4.9 N | 5 7.1 N | 353 75.8 54.8
5/8/26 - 0040 60.9 36.3 40 3.9 N | 7 7.8 NE | 39 75.8 54.8
5/8/26 - 0030 61.8 36.6 39 4.3 N | 8 7.9 NNE | 15 75.8 54.8
5/8/26 - 0020 62.0 36.3 38 4.5 N | 4 8.0 N | 10 75.8 54.8
5/8/26 - 0010 61.5 35.5 38 5.8 N | 7 7.2 NNW | 348 75.8 54.8
5/8/26 - 0000 62.0 35.2 37 4.7 N | 6 7.4 N | 3 75.8 54.8
5/7/26 - 2350 61.5 34.3 36 3.9 N | 7 5.8 N | 10 75.8 54.8
5/7/26 - 2340 61.7 33.5 35 3.3 N | 4 5.0 N | 2 75.8 54.8
5/7/26 - 2330 61.8 33.4 34 4.1 N | 360 7.6 N | 6 75.8 54.8
5/7/26 - 2320 61.9 33.2 34 5.6 NNE | 14 10.2 NNE | 16 75.8 54.8
5/7/26 - 2310 62.0 33.1 34 6.8 NNE | 14 11.8 N | 8 75.8 54.8
5/7/26 - 2300 62.4 33.0 33 7.5 NNE | 17 11.8 NNE | 29 75.8 54.8
5/7/26 - 2250 62.5 32.7 33 8.3 N | 8 11.2 NNE | 22 75.8 54.8
5/7/26 - 2240 63.1 32.5 32 8.8 N | 5 12.5 N | 8 75.8 54.8
5/7/26 - 2230 63.2 31.8 31 7.5 N | 2 9.9 N | 0 75.8 54.8
5/7/26 - 2220 63.6 31.4 30 8.7 N | 0 12.6 N | 6 75.8 54.8
5/7/26 - 2210 63.4 30.6 29 8.7 N | 1 13.4 N | 8 75.8 54.8
5/7/26 - 2200 63.2 30.3 29 6.8 N | 5 9.1 N | 10 75.8 54.8
5/7/26 - 2150 63.5 30.0 28 7.2 N | 352 10.5 NNW | 348 75.8 54.8
5/7/26 - 2140 63.7 30.6 29 7.3 N | 3 13.7 NNW | 336 75.8 54.8
5/7/26 - 2130 64.7 29.6 27 6.9 NNW | 345 13.0 NW | 310 75.8 54.8
5/7/26 - 2120 64.8 29.3 26 7.7 NNW | 342 12.1 NNE | 16 75.8 54.8
5/7/26 - 2110 64.8 29.6 26 7.8 NNW | 331 14.8 NNW | 336 75.8 54.8
5/7/26 - 2100 64.5 30.5 28 7.3 NNW | 336 12.1 NNW | 348 75.8 54.8
5/7/26 - 2050 64.5 30.8 28 9.3 NNW | 345 14.7 NNW | 339 75.8 54.8
5/7/26 - 2040 64.4 31.0 28 9.2 NNW | 347 13.9 NNE | 19 75.8 54.8
5/7/26 - 2030 64.2 31.6 29 9.8 NNW | 348 17.2 N | 0 75.8 54.8
Max 74.4 49.6 61 15.6 - 27.5 - 75.8 59.0
Avg 66.9 35.4 32 8.5 - 14.0 - - -
Min 59.1 26.2 18 1.6 - 3.5 - 60.1 54.8